Showing default

ANNA 1B, 446

Orbit data source: Space-Track

ANNA 1B, 446 is a payload satellite owned by USN BuWeps (US) in LEO that was launched on Wed, 31 Oct 1962 UTC via a THOR ABLESTAR launch vehicle from the Air Force Eastern Test Range (AFETR). Payload-class satellites include a variety of spacecraft equipped with specific instruments for various scientific and technological missions. These include communications satellites like Starlink; space stations such as the ISS; scientific satellites like the Hubble; Earth observation satellites from companies like Planet Labs, Umbra, and HawkEye 360; GPS; miniature CubeSats for education and research; and military/defense satellites.

Loading next visibility...
Identifier
446, 1962-060A
Orbit
LEO
Country
Flag of USUS
Related business
Manufacturer
APL
Mission
Spacecraft
Bus & Motor
TRANSIT 1, Unknown motor
Mass
157 kg wet, 157 kg dry
Launch date (UTC)
1962-10-31 (64 years ago)
Launch vehicle
THOR ABLESTAR
Launch site
Air Force Eastern Test Range (AFETR)
Object type
Payload
Rocket body
Debris
Shape & HBR
Unknown
Radar Cross Section
Medium (>0.1 m² and <1 m²)

Expand to show TLE details & history
Last TLE update: 6 hours ago

TLE from 6 hours ago
0 ANNA 1B
1 00446U 62060A   26129.98046968 -.00000118  00000-0  14690-4 0  9993
2 00446  50.1397 133.2759 0070242 262.1033 117.6223 13.35362381 98603
Epoch: 2026-05-09T23:31Z
TLE epoch observation values (Epoch: 2026-05-09T23:31:52.580Z)
Latitude
15.56687°
Longitude
-74.10266°
Altitude
1,151.18 km
Speed
7.268 km/s
True Right ascension
09h 46m 37s
True Declination
15° 28' 58"
Sunlit
Object was in daylight at epoch
Visualization orbit readout
Latitude
Unknown
Longitude
Unknown
Altitude
Unknown
Speed
Unknown
Apparent Right ascension
Unknown
Apparent Declination
Unknown
Sunlit
N/A
Visualization observer readout
Local Sidereal Time
13:33:53
Azimuth
Unknown
Elevation
Unknown
Doppler factor
Unknown
Orbital elements
Apogee altitude
1,180.011 km
Perigee altitude
1,074.571 km
Semi-major axis
7,505.428 km
Eccentricity
0.00702
Inclination
50.1397°
RAAN
133.2759°
Arg. of periapsis
262.1033°
True anomaly
118.33256°
Mean anomaly
117.6223°
Eccentric anomaly
117.97772°
Mean motion
3.33795 °/min
Orbital period
107.85 mins
BSTAR
0.00001469
Loading maneuver chart data...
Computing Atmospheric mass density...
Loading historical data...
Loading historical data...
Loading historical data...
Loading historical data...
Loading historical data...
Loading historical data...
Loading historical data...
Other satellites on launch #60 in the year 1962 (1962-10-31 UTC)

Documentation

Showing up to 5 results
|